| time (UTC) | temp F | wind direction | speed MPH | gust MPH | rain 1hr in | rain 24hr in | rain mn in | humidity % | barometer mb |
| 20260508174529 | 61 | 324 | 6.0 | 12.0 | 0.00 | 0.00 | 0.00 | 55 | 1020.5 |
| 20260508173029 | 61 | 325 | 4.0 | 10.0 | 0.00 | 0.00 | 0.00 | 56 | 1020.5 |
| 20260508164645 | 59 | 16 | 2.0 | 9.0 | 0.00 | 0.00 | 0.00 | 60 | 1020.5 |
| 20260508163107 | 58 | 347 | 2.0 | 6.0 | 0.00 | 0.00 | 0.00 | 61 | 1020.7 |
| 20260508161529 | 57 | 346 | 2.0 | 6.0 | 0.00 | 0.00 | 0.00 | 64 | 1020.8 |
| 20260508154531 | 51 | 83 | 1.0 | 4.0 | 0.00 | 0.00 | 0.00 | 73 | 1020.7 |
| 20260508153030 | 48 | 153 | 0.0 | 1.0 | 0.00 | 0.00 | 0.00 | 74 | 1020.5 |
| 20260508151532 | 47 | 157 | 0.0 | 1.0 | 0.00 | 0.00 | 0.00 | 74 | 1020.3 |
| 20260508150030 | 46 | 239 | 0.0 | 1.0 | 0.00 | 0.00 | 0.00 | 74 | 1020.1 |
| 20260508144605 | 45 | 247 | 0.0 | 1.0 | 0.00 | 0.00 | 0.00 | 75 | 1019.9 |
| 20260508143031 | 43 | 198 | 0.0 | 3.0 | 0.00 | 0.00 | 0.00 | 76 | 1019.7 |
| 20260508140105 | 40 | 210 | 1.0 | 4.0 | 0.00 | 0.00 | 0.00 | 78 | 1019.4 |
| 20260508134531 | 39 | 213 | 1.0 | 5.0 | 0.00 | 0.00 | 0.00 | 78 | 1019.2 |
| 20260508133029 | 38 | 212 | 2.0 | 5.0 | 0.00 | 0.00 | 0.00 | 78 | 1019.0 |
| 20260508131531 | 37 | 199 | 2.0 | 6.0 | 0.00 | 0.00 | 0.00 | 77 | 1018.9 |
| 20260508130032 | 38 | 210 | 1.0 | 3.0 | 0.00 | 0.00 | 0.00 | 77 | 1018.7 |
| 20260508123029 | 37 | 226 | 1.0 | 4.0 | 0.00 | 0.00 | 0.00 | 76 | 1018.6 |
| 20260508121606 | 38 | 200 | 0.0 | 3.0 | 0.00 | 0.00 | 0.00 | 75 | 1018.6 |
| 20260508120042 | 38 | 202 | 2.0 | 4.0 | 0.00 | 0.00 | 0.00 | 75 | 1018.7 |
| 20260508120033 | 38 | 239 | 1.0 | 4.0 | 0.00 | 0.00 | 0.00 | 74 | 1018.6 |
| 20260508113030 | 39 | 235 | 2.0 | 4.0 | 0.00 | 0.00 | 0.00 | 74 | 1018.5 |
| 20260508111532 | 38 | 208 | 2.0 | 7.0 | 0.00 | 0.00 | 0.00 | 74 | 1018.5 |
| 20260508110030 | 38 | 224 | 2.0 | 4.0 | 0.00 | 0.00 | 0.00 | 74 | 1018.4 |
| 20260508104602 | 38 | 215 | 2.0 | 4.0 | 0.00 | 0.00 | 0.00 | 73 | 1018.4 |
| 20260508103041 | 38 | 207 | 1.0 | 5.0 | 0.00 | 0.00 | 0.00 | 72 | 1018.4 |
| 20260508101547 | 38 | 202 | 2.0 | 4.0 | 0.00 | 0.00 | 0.00 | 71 | 1018.5 |
| 20260508100031 | 39 | 207 | 2.0 | 4.0 | 0.00 | 0.00 | 0.00 | 70 | 1018.4 |
| 20260508094529 | 39 | 235 | 1.0 | 3.0 | 0.00 | 0.00 | 0.00 | 69 | 1018.4 |
| 20260508093108 | 40 | 218 | 1.0 | 3.0 | 0.00 | 0.00 | 0.00 | 68 | 1018.4 |
| 20260508091530 | 40 | 201 | 2.0 | 7.0 | 0.00 | 0.00 | 0.00 | 68 | 1018.4 |
| 20260508084532 | 40 | 224 | 2.0 | 5.0 | 0.00 | 0.00 | 0.00 | 68 | 1018.2 |
| 20260508083030 | 40 | 202 | 1.0 | 6.0 | 0.00 | 0.00 | 0.00 | 68 | 1018.3 |
| 20260508081530 | 40 | 201 | 1.0 | 6.0 | 0.00 | 0.00 | 0.00 | 67 | 1018.3 |
| 20260508080030 | 41 | 213 | 1.0 | 6.0 | 0.00 | 0.00 | 0.00 | 65 | 1018.4 |
| 20260508074532 | 42 | 215 | 1.0 | 4.0 | 0.00 | 0.00 | 0.00 | 64 | 1018.2 |
| 20260508073032 | 42 | 193 | 3.0 | 6.0 | 0.00 | 0.00 | 0.00 | 63 | 1018.2 |
| 20260508071531 | 42 | 196 | 2.0 | 7.0 | 0.00 | 0.00 | 0.00 | 62 | 1018.3 |
| 20260508070035 | 42 | 266 | 0.0 | 3.0 | 0.00 | 0.00 | 0.00 | 61 | 1018.3 |
| 20260508064538 | 43 | 267 | 0.0 | 3.0 | 0.00 | 0.00 | 0.00 | 58 | 1018.3 |
| 20260508063036 | 44 | 280 | 1.0 | 3.0 | 0.00 | 0.00 | 0.00 | 57 | 1018.3 |
| 20260508061603 | 45 | 274 | 2.0 | 4.0 | 0.00 | 0.00 | 0.00 | 56 | 1018.3 |
| 20260508060030 | 46 | 227 | 1.0 | 4.0 | 0.00 | 0.00 | 0.00 | 54 | 1018.3 |
| 20260508054531 | 47 | 258 | 0.0 | 4.0 | 0.00 | 0.00 | 0.00 | 50 | 1018.3 |
| 20260508053031 | 49 | 292 | 1.0 | 4.0 | 0.00 | 0.00 | 0.00 | 47 | 1018.3 |
| 20260508051529 | 52 | 239 | 1.0 | 5.0 | 0.00 | 0.00 | 0.00 | 43 | 1018.2 |
| 20260508050030 | 55 | 167 | 0.0 | 2.0 | 0.00 | 0.00 | 0.00 | 37 | 1018.1 |
| 20260508043028 | 57 | 344 | 4.0 | 8.0 | 0.00 | 0.00 | 0.00 | 34 | 1018.0 |
| 20260508041526 | 57 | 3 | 4.0 | 7.0 | 0.00 | 0.00 | 0.00 | 33 | 1017.9 |
| 20260508040031 | 59 | 16 | 4.0 | 7.0 | 0.00 | 0.00 | 0.00 | 31 | 1017.6 |
| 20260508034532 | 60 | 341 | 4.0 | 8.0 | 0.00 | 0.00 | 0.00 | 30 | 1017.4 |
| 20260508033030 | 61 | 329 | 3.0 | 8.0 | 0.00 | 0.00 | 0.00 | 29 | 1017.4 |
| 20260508030031 | 63 | 330 | 5.0 | 11.0 | 0.00 | 0.00 | 0.00 | 28 | 1017.1 |
| 20260508024530 | 64 | 334 | 5.0 | 12.0 | 0.00 | 0.00 | 0.00 | 27 | 1017.1 |
| 20260508023029 | 65 | 339 | 5.0 | 11.0 | 0.00 | 0.00 | 0.00 | 27 | 1017.1 |
| 20260508021529 | 66 | 348 | 3.0 | 10.0 | 0.00 | 0.00 | 0.00 | 27 | 1017.1 |
| 20260508014605 | 67 | 321 | 4.0 | 8.0 | 0.00 | 0.00 | 0.00 | 25 | 1017.1 |
| 20260508013107 | 69 | 298 | 6.0 | 14.0 | 0.00 | 0.00 | 0.00 | 25 | 1017.2 |
| 20260508011530 | 70 | 331 | 6.0 | 14.0 | 0.00 | 0.00 | 0.00 | 24 | 1017.2 |
| 20260508004530 | 71 | 324 | 7.0 | 15.0 | 0.00 | 0.00 | 0.00 | 25 | 1017.1 |
| 20260508003030 | 71 | 332 | 8.0 | 16.0 | 0.00 | 0.00 | 0.00 | 26 | 1017.0 |
| 20260508001607 | 71 | 338 | 8.0 | 17.0 | 0.00 | 0.00 | 0.00 | 27 | 1017.0 |
| 20260508000035 | 72 | 323 | 8.0 | 17.0 | 0.00 | 0.00 | 0.00 | 28 | 1017.0 |
| 20260507234531 | 72 | 311 | 9.0 | 18.0 | 0.00 | 0.00 | 0.00 | 28 | 1016.9 |
| 20260507233028 | 73 | 298 | 10.0 | 19.0 | 0.00 | 0.00 | 0.00 | 28 | 1016.8 |
| 20260507231532 | 74 | 293 | 9.0 | 18.0 | 0.00 | 0.00 | 0.00 | 29 | 1016.9 |
| 20260507230031 | 74 | 297 | 8.0 | 17.0 | 0.00 | 0.00 | 0.00 | 30 | 1017.1 |
| 20260507223104 | 74 | 313 | 9.0 | 19.0 | 0.00 | 0.00 | 0.00 | 30 | 1017.5 |
| 20260507221532 | 75 | 302 | 7.0 | 17.0 | 0.00 | 0.00 | 0.00 | 31 | 1017.7 |
| 20260507220032 | 75 | 326 | 7.0 | 15.0 | 0.00 | 0.00 | 0.00 | 31 | 1017.9 |
| 20260507214530 | 75 | 316 | 7.0 | 18.0 | 0.00 | 0.00 | 0.00 | 33 | 1018.1 |
| 20260507213031 | 75 | 323 | 6.0 | 12.0 | 0.00 | 0.00 | 0.00 | 33 | 1018.2 |
| 20260507211546 | 75 | 328 | 7.0 | 17.0 | 0.00 | 0.00 | 0.00 | 33 | 1018.3 |
| 20260507210031 | 75 | 337 | 6.0 | 14.0 | 0.00 | 0.00 | 0.00 | 33 | 1018.5 |
| 20260507204532 | 75 | 344 | 3.0 | 10.0 | 0.00 | 0.00 | 0.00 | 34 | 1018.6 |
| 20260507203032 | 74 | 342 | 4.0 | 9.0 | 0.00 | 0.00 | 0.00 | 34 | 1018.9 |
| 20260507201607 | 74 | 311 | 4.0 | 12.0 | 0.00 | 0.00 | 0.00 | 36 | 1019.0 |
| 20260507194531 | 74 | 360 | 4.0 | 11.0 | 0.00 | 0.00 | 0.00 | 39 | 1019.2 |
| 20260507193031 | 73 | 43 | 4.0 | 11.0 | 0.00 | 0.00 | 0.00 | 41 | 1019.4 |
| 20260507191530 | 71 | 343 | 2.0 | 9.0 | 0.00 | 0.00 | 0.00 | 43 | 1019.5 |
| 20260507190029 | 70 | 332 | 4.0 | 12.0 | 0.00 | 0.00 | 0.00 | 45 | 1019.6 |
| 20260507181532 | 63 | 343 | 3.0 | 11.0 | 0.00 | 0.00 | 0.00 | 56 | 1020.0 |